COSMOS 2492 (754) (39620 NORAD) Tracking and Keplerian Element Data

This shows tracking and keplerian element data for the satellite.

Feedback or suggestion? Click here.




ElementValue
Catalog39620
NameCOSMOS 2492 (754)
Epoch Orbit3361
Epoch Day198.48917752
Epoch Year2018
RAAN51.2266
Inclination65.4827
Eccentricity0.0014157
Argument of Perigee336.9598
Mean Anonmoly177.2348
Mean Motion2.13103384
Decay Rate-5.2E-07
L11 39620U 14012A 18198.48917752 -.00000052 00000-0 10000-3 0 9990
L22 39620 65.4827 51.2266 0014157 336.9598 177.2348 2.13103384 33617

Live tracking and technical data element details for COSMOS 2492 (754) (NORAD 39620). COSMOS 2492 (754) can be tracked NOW for your location showing map with azimuth and elevation plus other details from your city location.

Track the satellite on the map from your city or location and see movement details for azimuth, elevation, latitude, longitude, range, height, and movement on the map or in text.







IsCatalogInMostPopularTable: catalog: 39620, numindb: 56
Update: records affected: 1



GetName: 39620 COSMOS 2492 (754)

Hit Count: updated at: Fri, 20 Jul 2018 20:31:22 GMT